Location: Wanzleben
(52.0609°N, 11.4408°E)
Time: 23:55:48
(UTC+00:00)

MetOp-A - Pass Details

Date: 18 September 2020
Orbit: 820 x 821 km, 98.5° (Epoch: 23 October)

Event Time Altitude Azimuth Distance (km) Brightness Sun altitude
Exits shadow 18:22:26 - 144° (SE) 2,800 6.4 -10.1°
Reaches altitude 10° 18:23:26 10° 141° (SE) 2,415 6.1 -10.3°
Maximum altitude 18:28:36 52° 67° (ENE) 1,023 4.4 -11.0°
Drops below altitude 10° 18:33:47 10° 353° (N) 2,431 6.9 -11.8°
Sets 18:36:11 0° 348° (NNW) 3,368 7.8 -12.1°
